Vertical_Velocity
-0 -3 -3 -2 -1 -1 -2 -2 -2 -2 -3 -4 -4 1 1 -1 -2 0 0 2 0 1 1 -2 2 -3 1 -2 -0 1 -2 1 -3 -5 -12 -1 3 -2 -5 5 2 1 -2
-3 -3 -2 0 0 -1 -2 -3 -4 -4 -1 1 -1 0 0 -0 0 -1 1 0 1 1 1 -1 -2 -3 -2 -2 -1 -1 -3 5 -3 -14 2 1 -2 3 -0 -3 14 4 -4
-1 -1 -1 -2 -3 -1 0 -1 -3 -3 -1 0 -3 0 -1 2 -0 -1 -1 0 0 -1 -2 -3 -2 -3 0 -1 0 1 -1 0 5 -5 -7 -2 2 6 2 -1 -3 6 9
-1 -2 -3 -1 0 -3 -5 -7 -8 0 2 1 2 1 -1 1 -1 -0 -1 -1 -1 -2 -3 -4 -2 -1 -1 -1 -0 2 -0 -2 1 5 -7 -1 -1 8 2 3 3 0 -0
-1 0 0 -1 -3 -5 -4 -3 -1 -3 1 1 2 0 -1 -1 1 -0 -3 -2 -2 -1 1 -1 -0 0 -1 -0 -3 1 -1 -1 1 1 -2 -1 -0 -1 2 3 -0 -0 2
1 -2 -3 -4 -4 -6 -6 -3 -4 -4 -3 0 1 0 -0 3 1 -1 -4 -3 -1 -2 0 1 -0 0 1 1 2 1 1 -2 0 -1 3 0 -1 9 5 -1 -1 -1 -9
-5 -3 -2 -3 -3 -5 -4 -6 -3 -2 -0 -2 0 6 2 1 -0 -2 -3 -2 -1 0 -2 -3 -1 -0 -1 -1 0 -0 -0 -0 -1 -0 -1 1 -0 1 7 7 3 -1 -3
-1 -2 -3 -4 -3 -2 -1 -4 -5 -3 1 1 -0 0 2 0 -2 0 -0 1 0 0 -1 -3 -4 -1 -1 -2 -1 -1 -0 0 1 0 -2 -2 -2 0 -3 -1 0 -2 -0
-1 -3 -1 -1 -2 -1 -3 -2 -3 -4 -1 -0 0 -0 1 -1 -1 -1 -2 -0 0 -0 -3 -4 -2 1 -1 -1 -1 0 0 0 0 -0 -1 0 0 -0 -1 -1 2 -2 -2
-0 1 -1 -2 -2 -1 -2 -3 -3 -3 0 -0 -0 -0 0 -2 -1 -1 -1 0 -0 0 -0 -0 -1 -1 -1 -0 -1 -2 -1 1 0 1 -0 -2 0 1 1 -0 2 1 1
-1 -1 0 -1 -5 -2 1 -1 -1 -0 0 -1 -1 -2 -2 0 0 -0 -1 -2 -2 -2 -3 1 0 -1 0 0 -0 -0 -1 -0 0 -0 0 -0 -2 -1 1 -0 0 0 1
-2 -1 -1 -1 -2 -0 -0 -1 -1 2 1 1 0 1 0 -1 -1 -0 -1 -2 -3 -2 -1 -1 -0 -0 -0 0 1 0 1 1 -0 1 1 0 -0 -1 -1 -1 -1 0 1
1 1 -2 -1 -1 -1 -0 -1 -1 1 0 -0 -0 1 0 -2 -1 -1 -1 -1 -1 0 -1 -2 -1 -2 -1 1 0 -0 1 1 1 0 1 1 1 1 -0 -1 -0 1 1
-1 -1 -2 -2 -1 -2 -0 0 0 0 -0 -1 -0 1 -0 -2 -2 -2 -0 0 1 0 0 -1 -0 -2 -3 -3 0 -0 -1 0 1 0 1 1 1 2 2 2 2 2 2
1 -0 -2 -1 -1 -0 -1 1 -1 -0 0 1 -0 -0 -1 -1 -1 -1 -0 -1 -1 -1 -0 -1 -1 1 1 1 -1 0 -0 1 1 0 0 1 1 1 1 2 3 3 3
-1 -0 1 -2 -2 -2 -2 2 1 2 -0 0 -0 0 -1 0 -1 -1 -0 -1 -0 1 1 -1 0 -1 -0 -0 1 -1 0 -1 -1 0 -0 0 1 1 1 2 2 2 3
-2 -0 -1 -3 -2 -3 -1 -0 1 2 -0 -2 -0 -1 -0 -1 -1 -1 -1 -0 0 1 -0 -2 -1 -0 -0 -0 -1 0 0 2 1 0 0 -0 0 0 0 -0 -0 0 0
-1 -2 -1 -1 -1 -1 -0 0 -0 0 1 1 -1 -1 -2 -1 -0 0 -2 -0 -1 -0 -0 -0 -1 -1 -0 0 0 1 1 -0 1 1 -0 -0 -0 -0 1 1 -1 -1 -2
-2 1 -1 -1 0 0 1 0 1 -0 0 1 1 -0 -1 -1 0 0 -2 -2 -1 1 1 -1 -0 -1 -1 -0 -0 -1 -0 1 2 1 1 1 1 0 0 1 1 1 1
-2 -2 -0 -1 -1 2 2 0 -1 -0 -0 1 0 -1 -1 -1 -1 -1 -1 -3 -2 -0 0 0 0 -0 -1 -0 -0 -0 -1 -2 -2 -0 1 1 1 1 1 0 1 2 2
-3 0 -1 -0 -1 -1 1 0 1 0 -1 0 0 -0 -0 -0 -1 -1 -1 -2 -2 -1 -1 -1 0 1 -0 -0 -1 -1 -1 -0 -1 -0 -0 1 1 0 1 1 0 1 0
-2 -0 -0 -1 -0 -1 0 -0 -1 -1 -1 -1 -0 0 -0 -0 -1 -1 -1 -1 -2 -2 -1 -1 -1 0 0 -0 -0 -1 -1 -1 -1 -1 -1 -0 -1 0 0 0 1 1 1
-1 -0 -1 1 -0 -0 0 -1 -1 -1 -1 -0 -0 -0 -1 1 -1 -1 -1 -1 -2 -2 -2 -3 -1 -0 -1 -1 -0 -1 -1 -1 -1 -1 -1 -1 -1 -1 -1 -1 -1 0 -0
-1 -1 -1 1 0 -0 0 2 -1 -2 -2 -1 -0 -0 1 1 0 -1 -0 -0 -1 -2 -2 -2 -1 -0 -0 -1 -1 -1 -1 -1 -1 -1 -1 -1 -0 -1 -1 -0 -1 -1 -0
1 0 1 -1 0 1 -1 1 1 2 2 2 2 1 -1 0 1 -0 -0 -0 -1 -1 -1 -2 -1 -1 0 -1 -1 -2 -2 -2 -2 -1 -1 -1 -1 -0 -1 -1 -1 -0 -1
1 1 2 0 1 1 1 1 3 4 3 3 5 5 3 3 1 0 1 -0 1 -0 0 -1 -1 -1 -0 -0 -1 -2 -2 -2 -2 -2 -1 -1 -1 -1 -1 -0 -0 -0 0
Height
3106 3100 3093 3087 3081 3076 3070 3064 3056 3049 3042 3034 3029 3024 3020 3016 3012 3008 3004 3000 2996 2992 2988 2984 2980 2976 2972 2967 2961 2956 2950 2946 2937 2936 2936 2939 2939 2940 2943 2945 2945 2946 2947
3098 3090 3083 3078 3072 3066 3059 3053 3046 3039 3033 3027 3021 3018 3013 3009 3005 3001 2998 2994 2990 2985 2981 2977 2974 2969 2963 2955 2949 2943 2938 2934 2928 2923 2925 2927 2928 2929 2932 2936 2938 2938 2938
3088 3081 3076 3070 3064 3057 3051 3044 3038 3030 3023 3017 3012 3009 3007 3004 3000 2996 2992 2988 2983 2980 2976 2970 2964 2957 2951 2945 2938 2932 2927 2923 2919 2914 2914 2916 2917 2919 2921 2926 2928 2929 2932
3081 3075 3069 3062 3056 3049 3043 3035 3028 3021 3015 3011 3006 3003 3001 2998 2995 2990 2986 2982 2978 2972 2967 2961 2954 2948 2941 2934 2927 2922 2917 2913 2910 2906 2905 2905 2907 2910 2911 2915 2919 2921 2923
3075 3068 3062 3055 3049 3041 3034 3026 3019 3014 3010 3005 3001 2997 2995 2992 2989 2984 2980 2976 2970 2964 2959 2953 2946 2939 2931 2924 2917 2912 2906 2902 2899 2897 2896 2897 2899 2901 2903 2905 2908 2912 2916
3068 3062 3055 3047 3040 3032 3025 3019 3012 3007 3002 2998 2995 2992 2990 2986 2983 2978 2973 2968 2962 2956 2950 2944 2938 2930 2922 2915 2909 2903 2898 2893 2891 2889 2888 2889 2892 2894 2896 2897 2899 2902 2907
3060 3053 3045 3038 3031 3024 3017 3011 3005 3001 2996 2993 2989 2987 2984 2980 2976 2971 2967 2961 2955 2949 2942 2935 2928 2921 2913 2907 2901 2895 2890 2887 2884 2882 2880 2881 2882 2885 2887 2889 2891 2893 2897
3051 3044 3037 3030 3024 3017 3011 3005 3000 2995 2991 2987 2985 2982 2979 2974 2969 2965 2961 2955 2949 2943 2936 2928 2920 2913 2907 2900 2894 2889 2884 2880 2878 2876 2874 2874 2875 2876 2878 2881 2882 2884 2888
3044 3037 3029 3022 3017 3011 3005 2999 2994 2989 2985 2981 2978 2975 2972 2968 2963 2958 2953 2948 2942 2937 2929 2922 2914 2908 2902 2895 2889 2884 2879 2875 2871 2869 2868 2868 2868 2869 2870 2872 2874 2875 2878
3036 3029 3023 3016 3010 3004 2997 2993 2987 2983 2979 2976 2972 2969 2966 2961 2957 2952 2946 2941 2936 2931 2924 2917 2909 2903 2897 2891 2885 2879 2874 2870 2866 2864 2862 2861 2861 2862 2863 2864 2867 2868 2871
3029 3022 3016 3008 3002 2997 2991 2986 2982 2978 2975 2971 2968 2964 2960 2955 2951 2946 2941 2935 2930 2925 2918 2912 2905 2899 2894 2888 2882 2877 2872 2867 2863 2859 2858 2857 2856 2856 2857 2858 2860 2862 2865
3020 3014 3008 3002 2995 2990 2985 2981 2977 2973 2970 2966 2963 2959 2954 2949 2945 2940 2936 2931 2925 2920 2914 2907 2901 2897 2892 2886 2880 2875 2870 2865 2861 2858 2856 2855 2854 2853 2853 2854 2856 2858 2860
3011 3006 3000 2994 2988 2983 2979 2976 2972 2968 2965 2961 2958 2953 2948 2944 2940 2936 2932 2927 2923 2917 2911 2905 2899 2894 2890 2885 2879 2874 2869 2864 2860 2858 2856 2854 2853 2852 2852 2852 2853 2855 2857
3003 2998 2992 2986 2981 2976 2973 2970 2967 2963 2959 2956 2952 2948 2943 2939 2935 2932 2928 2924 2920 2915 2909 2903 2897 2892 2887 2883 2879 2873 2868 2864 2859 2857 2856 2855 2854 2853 2853 2852 2853 2855 2857
2996 2991 2985 2979 2974 2970 2967 2965 2962 2958 2954 2951 2947 2942 2939 2935 2932 2928 2925 2921 2917 2913 2908 2902 2896 2892 2887 2883 2878 2874 2869 2864 2859 2857 2856 2855 2855 2855 2854 2854 2855 2856 2858
2988 2983 2978 2972 2968 2964 2961 2959 2957 2953 2949 2945 2941 2937 2934 2931 2928 2925 2921 2918 2914 2910 2906 2901 2896 2891 2887 2882 2878 2873 2869 2865 2861 2857 2857 2856 2856 2855 2856 2856 2857 2857 2859
2981 2976 2971 2966 2962 2958 2956 2954 2951 2948 2944 2940 2937 2933 2931 2928 2925 2922 2918 2914 2911 2907 2903 2899 2895 2891 2886 2882 2878 2873 2870 2866 2863 2859 2857 2857 2856 2856 2855 2856 2856 2856 2857
2973 2969 2964 2960 2957 2954 2951 2949 2946 2942 2939 2936 2932 2930 2928 2925 2922 2919 2915 2911 2908 2905 2901 2897 2893 2890 2886 2881 2878 2874 2870 2866 2864 2861 2859 2857 2856 2855 2855 2854 2854 2854 2855
2968 2964 2959 2955 2952 2949 2947 2945 2941 2938 2934 2931 2929 2926 2924 2922 2919 2916 2912 2909 2906 2903 2899 2895 2892 2888 2884 2881 2877 2873 2870 2867 2864 2861 2859 2857 2856 2854 2854 2853 2853 2852 2852
2963 2958 2954 2950 2947 2944 2942 2939 2936 2933 2930 2927 2925 2923 2921 2919 2916 2913 2910 2907 2904 2901 2897 2894 2890 2887 2883 2879 2876 2873 2869 2866 2863 2861 2859 2857 2855 2854 2853 2852 2851 2851 2851
2957 2952 2948 2944 2941 2938 2936 2934 2932 2929 2926 2923 2921 2919 2917 2915 2913 2910 2907 2904 2901 2898 2895 2892 2888 2885 2881 2877 2874 2871 2868 2866 2863 2861 2858 2856 2855 2853 2852 2851 2851 2850 2850
2951 2947 2942 2938 2935 2932 2931 2929 2927 2924 2921 2919 2917 2915 2913 2911 2909 2906 2904 2901 2899 2895 2892 2889 2886 2882 2878 2875 2871 2868 2866 2863 2861 2859 2857 2855 2854 2852 2851 2850 2849 2849 2848
2944 2940 2936 2932 2929 2926 2925 2923 2921 2919 2917 2914 2912 2910 2908 2907 2904 2902 2900 2897 2895 2892 2889 2886 2883 2880 2876 2872 2868 2864 2862 2860 2858 2857 2855 2853 2851 2850 2849 2848 2847 2846 2846
2937 2933 2929 2925 2922 2920 2918 2917 2915 2913 2911 2909 2906 2904 2902 2900 2899 2897 2895 2892 2890 2888 2885 2883 2880 2877 2873 2869 2864 2860 2858 2856 2855 2853 2852 2850 2849 2847 2846 2845 2844 2843 2843
2929 2925 2921 2918 2915 2913 2911 2909 2908 2906 2904 2902 2899 2897 2895 2894 2892 2890 2889 2887 2885 2883 2881 2878 2876 2873 2869 2865 2861 2857 2855 2853 2851 2850 2849 2847 2846 2844 2843 2842 2841 2840 2840
2920 2916 2913 2910 2908 2905 2903 2901 2899 2897 2895 2893 2891 2890 2888 2886 2884 2883 2881 2880 2878 2877 2875 2873 2871 2868 2865 2862 2858 2855 2852 2850 2848 2846 2845 2844 2842 2841 2840 2839 2838 2837 2836